STARLINK-3080, 49161

Orbit data source: Space-Track

STARLINK-3080, 49161 is a payload satellite owned by SpaceX/Seattle (US) in LEO that was launched on Tue, 14 Sep 2021 UTC via an FALCON 9 launch vehicle from the Air Force Western Test Range (AFWTR). Payload-class satellites include a variety of spacecraft equipped with specific instruments for various scientific and technological missions. These include communications satellites like Starlink; space stations such as the ISS; scientific satellites like the Hubble; Earth observation satellites from companies like Planet Labs, Umbra, and HawkEye 360; GPS; miniature CubeSats for education and research; and military/defense satellites.

Loading next visibility...
Identifier
49161, 2021-082AH
Orbit
LEO
Country
Flag of USUS
Related business
Manufacturer
SpaceX/Seattle
Mission
Operational Commercial Communications
Bus & Motor
STARLINK, Unknown motor
Mass
297 kg wet, ~275 kg dry
Launch date (UTC)
2021-09-14 (5 years ago)
Launch vehicle
FALCON 9
Launch site
Air Force Western Test Range (AFWTR)
Object type
Payload
Rocket body
Debris
Shape & HBR
Box + 1 Pan, 10.1 m
Radar Cross Section
13.562 m², Large (>1 m²)

Expand to show TLE details & history
Last TLE update: 11 hours ago

TLE from 11 hours ago
0 STARLINK-3080
1 49161U 21082AH  26125.49330922 -.00001821  00000-0 -14484-3 0  9990
2 49161  69.9990 151.2133 0004134 266.5677  93.5009 14.98332222255567
Epoch: 2026-05-05T11:50Z
TLE epoch observation values (Epoch: 2026-05-05T11:50:21.916Z)
Latitude
-0.00005°
Longitude
110.2546°
Altitude
574.649 km
Speed
7.574 km/s
True Right ascension
10h 04m 51s
True Declination
0° 00' 00"
Sunlit
Object was in daylight at epoch
Visualization orbit readout
Latitude
Unknown
Longitude
Unknown
Altitude
Unknown
Speed
Unknown
Apparent Right ascension
Unknown
Apparent Declination
Unknown
Sunlit
N/A
Visualization observer readout
Local Sidereal Time
07:13:05
Azimuth
Unknown
Elevation
Unknown
Doppler factor
Unknown
Orbital elements
Apogee altitude
572.87 km
Perigee altitude
567.125 km
Semi-major axis
6,948.134 km
Eccentricity
0.00041
Inclination
69.999°
RAAN
151.2133°
Arg. of periapsis
266.5677°
True anomaly
93.54818°
Mean anomaly
93.5009°
Eccentric anomaly
93.52454°
Mean motion
3.74749 °/min
Orbital period
96.06 mins
BSTAR
-0.00014484
Loading maneuver chart data...
Computing Atmospheric mass density...
Loading historical data...
Loading historical data...
Loading historical data...
Loading historical data...
Loading historical data...
Loading historical data...
Loading historical data...

Documentation

Showing up to 5 results
|